Weather Service Report


181 
ASUS41 KAKQ 221610
RWRAKQ

REGIONAL WEATHER ROUNDUP
NATIONAL WEATHER SERVICE WAKEFIELD VA
1100 AM EST MON DEC 22 2014

Note: "fair" indicates few or no clouds below 12,000 feet with no
significant weather and/or obstructions to visibility. * = Denotes
station may not report precipitation (e.g., rain,snow,etc.),
thunder or fog.

VAZ042-051-052>054-056-221700-
NORTHERN VIRGINIA
  
CITY           SKY/WX    TMP DP  RH WIND       PRES   REMARKS
WASH NATIONAL  CLOUDY    38  27  64 NE7       30.29F                  
DULLES         CLOUDY    34  25  69 CALM      30.29F                  
FORT BELVOIR   NOT AVBL                                               
QUANTICO       LGT RAIN  37  29  72 N7        30.30S                  
FREDERICKSBRG* DRIZZLE   36  32  87 N5        30.28S                  
STAFFORD*      LGT RAIN  35  35 100 NW3       30.33S                  
WARRENTON      RAIN      34  33  94 NW3       30.29R                  
CULPEPER*      LGT RAIN  34  32  93 CALM      30.29S                  
MANASSAS*      NOT AVBL                                               
LEESBURG*      CLOUDY    32  30  93 MISG      30.30S                  
WINCHESTER     CLOUDY    34  25  69 CALM      30.27S HAZE             
FRONT ROYAL*   CLOUDY    32  30  93 CALM      30.26R                  
LURAY*         DRIZZLE   32  32 100 CALM      30.25F                  
$$

VAZ048-049-060>072-079>083-221700-
CENTRAL AND SOUTH CENTRAL VIRGINIA
  
CITY           SKY/WX    TMP DP  RH WIND       PRES   REMARKS
RICHMOND       LGT RAIN  37  34  87 NE9       30.22F FOG              
CHESTERFIELD*  CLOUDY    36  25  64 N8        30.22F                  
PETERSBURG*    LGT RAIN  38  37  97 NE12      30.20F                  
HANOVER        MIX PCPN  35  33  92 VRB3      30.24F FOG              
TAPPAHANNOCK*  RAIN      37  33  85 N7        30.25F                  
QUINTON*       CLOUDY    36  35  96 N3        30.23F                  
CHARLOTTSVILLE FRZ RAIN  32  30  92 N6        30.25F FOG              
GORDONSVILLE*  CLOUDY    32  30  92 N3        30.27F FOG              
ORANGE*        MIX PCPN  34  32  93 NW7       30.29F                  
LOUISA*        MIX PCPN  34  30  86 N7        30.24F VSB 1            
BUMPASS*       CLOUDY    33  32  94 NE5       30.25F                  
FARMVILLE*     CLOUDY    36  36 100 NE10      30.21F FOG              
CREWE*         CLOUDY    34  32  93 NE6       30.20F                  
FORT PICKETT*  CLOUDY    35  34  96 N9        30.18F                  
CHASE CITY*    CLOUDY    36  36 100 NE5       30.17F                  
CLARKSVILLE*   CLOUDY    34  34 100 N6        30.17F                  
SOUTH HILL*    CLOUDY    35  34  95 N9        30.21F                  
LAWRENCEVILLE* CLOUDY    36  36  99 N7        30.16F                  
EMPORIA*       MIX PCPN  36  36 100 N8        30.17F                  
$$

VAZ088>098-221700-
SOUTHEAST VIRGINIA
  
CITY           SKY/WX    TMP DP  RH WIND       PRES   REMARKS
NORFOLK        LGT RAIN  46  43  89 E13       30.14F                  
VIRGINIA BEACH RAIN      48  46  93 NE16      30.14F FOG              
NORFOLK NAVAL  RAIN      48  43  82 NE14      30.17R FOG              
WEST POINT*    CLOUDY    41  38  89 N6        30.24S                  
SALUDA*        CLOUDY    39  37  91 N7        30.22S                  
NEWPORT NEWS   RAIN      44  40  85 NE9       30.19S FOG              
LANGLEY AFB    NOT AVBL                                               
FORT EUSTIS    NOT AVBL                                               
WILLIAMSBURG*  CLOUDY    43  41  93 NE3       30.21S VSB 1/2          
HR EXEC AP*    CLOUDY    45  43  93 NE16G22   30.17F                  
FRANKLIN*      CLOUDY    41 N/A N/A N5        30.17F                  
WAKEFIELD      LGT RAIN  40  37  89 N5        30.20S FOG              
$$

VAZ020-022-025-037-045-221700-
WEST CENTRAL AND SOUTHWEST VIRGINIA
  
CITY           SKY/WX    TMP DP  RH WIND       PRES   REMARKS
STAUNTON*      RAIN      34  31  91 N5        30.23F                  
WAYNESBORO*    CLOUDY    31  30  96 CALM      30.20F                  
HOT SPRINGS VA MIX PCPN  30  30 100 SE9       30.06F VSB<1/4          
LYNCHBURG      LGT RAIN  32  31  96 NE16      30.20F FOG     WCI  21  
DANVILLE       LGT RAIN  36  33  89 NE9       30.21R FOG              
SOUTH BOSTON*  CLOUDY    35  33  94 N5        30.20S                  
MARTINSVILLE   CLOUDY    36  36 100 NE6       30.21S FOG              
ROANOKE        DRIZZLE   35  33  92 CALM      30.20F FOG              
BLACKSBURG     CLOUDY    33  31  94 E6        30.16F FOG              
DUBLIN*        CLOUDY    35  35  99 E5        30.15S FOG              
MARION*        CLOUDY    37  33  85 E8        30.13S                  
HILLSVILLE*    CLOUDY    34  33  95 CALM      30.11R FOG              
RICHLANDS*     CLOUDY    48  38  67 SE8       30.04S                  
WISE*          PTSUNNY   50  37  62 SE5       30.02F                  
ABINGDON*      CLOUDY    49  39  70 E13       30.04F                  
$$

MDZ021>025-VAZ099-100-221700-
SOUTHERN MARYLAND AND THE DELMARVA PENINSULA
  
CITY           SKY/WX    TMP DP  RH WIND       PRES   REMARKS
PATUXENT RIVER LGT RAIN  37  30  75 NE13      30.26F                  
BAY BRIDGE APT   N/A     36  30  80 NE6       30.28F                  
LEONARDTOWN    CLOUDY    36  30  80 NE5       30.27F                  
DOVER          NOT AVBL                                               
GEORGETOWN     CLOUDY    40  31  70 NE8       30.27F                  
EASTON         LGT RAIN  37  34  87 E7        30.31F                  
CAMBRIDGE      PTSUNNY   37  32  81 NE6       30.26F                  
SALISBURY      LGT RAIN  41  33  73 NE8       30.25F                  
OCEAN CITY     LGT RAIN  44  39  82 NE9       30.25F                  
WALLOPS ISLAND LGT RAIN  41  40  96 E13       30.24F FOG              
ACCOMACK*      LGT RAIN  43  39  87 NE14      30.20F                  
$$

NCZ012>017-030>032-221700-
NORTH CENTRAL AND EASTERN NORTH CAROLINA
  
CITY           SKY/WX    TMP DP  RH WIND       PRES   REMARKS
ROANOKE RAPIDS CLOUDY    37  36  93 N8        30.14F FOG              
RALEIGH        CLOUDY    38  35  89 VRB7      30.15F FOG              
ELIZABETH CITY RAIN      52  47  83 NE16      30.11F                  
AHOSKIE*       LGT RAIN  41  39  95 N9        30.13F                  
EDENTON*       RAIN      46  46  97 N12G20    30.10S                  
CURRITUCK*     RAIN      48  47  93 NE12G17   30.13F                  
KILL DEVIL HLS RAIN      52  52 100 N9G18     30.07F                  
MANTEO         RAIN      53  53 100 N16       30.07F                  
CAPE HATTERAS  LGT RAIN  59  59 100 SE13      30.02F FOG              
TARBORO*       CLOUDY    41  39  92 N8G16     30.15F                  
GOLDSBORO      NOT AVBL                                               
WASHINGTON     CLOUDY    43  42  96 NE8       30.09F                  
GREENVILLE     RAIN      41  41 100 N6        30.13F                  
NEW BERN       CLOUDY    48  44  86 NW9       30.09F                  
WILMINGTON     CLOUDY    44  43  96 N7        30.07F                  
$$

VAZ048-221700-
ELSEWHERE
  
CITY           SKY/WX    TMP DP  RH WIND       PRES   REMARKS
HARRISBURG PA  CLOUDY    30  24  78 CALM      30.30F                  
BALTIMORE      CLOUDY    35  27  72 NE8       30.28F                  
ANNAPOLIS      NOT AVBL                                               
ANDREWS AFB    NOT AVBL                                               
PHILADELPHIA   PTSUNNY   40  31  70 E6        30.32S                  
HENDERSON NC   DRIZZLE   35  34  94 N7        30.16F                  
GREENSBORO     DRIZZLE   35  34  96 NE9       30.16R FOG              
ROCKY MOUNT    CLOUDY    40  38  93 N9        30.13F FOG              
$$

VAZ100-221700-
MARINE
  
STATION/POSITION TIME  TEMP    WIND        PRES    WAVE   SWELL
                       AIR SEA DIR/SP/G            HT/PER HT/PER
                 (UTC) (F)     (DEG/KT/KT) (MB)    (FT/S) (FT/S)
CAPE MAY NJ      1600   37 43   30/  3/  5 1025.2F
LEWES DE         1600   39 41   30/ 10/ 12 1025.4R
15NM E FENWICK I 1600   45 45              1024.4F   2/ 3
OCEAN-CITY-INLET 1600   44 43   70/  6/  9 1024.4S
WACHAPREAGUE VA  1600   43 40   40/ 14/ 17 1022.5F
THOMAS POINT MD  1600   35 40   40/ 10/ 11 1026.2F
GOOSES REEF MD   1600   36     VRB 12/ 14  1024.2F
COVE POINT MD    1600   35      40/ 10/ 13 1024.8S
SOLOMONS ISLAND  1600      42                N/A
BISHOPS HEAD MD  1600   37 37   40/ 13/ 15 1023.6F
POTOMAC MD       1600   38      50/ 14/ 17 1022.9F
CAMBRIDGE MD     1600   36 40   30/  6/  8 1024.9F
LEWISETTA VA     1600   38 41   30/  8/ 12 1024.1R
RAPPAHANNOCK LGT 1600           30/ 14/ 16 1022.9F
STINGRAY PT      1600   41      50/ 16/ 19 1023.1S
YORK RVR RNG VA  1600   41      40/ 18/ 20 1021.1F
YORKTOWN VA      1600   42 44   20/ 12/ 13 1022.3R
JAMESTOWN VA     1600   39      40/  4/  8   N/A
DOMINION TERM VA 1600   43      70/ 13/ 16 1021.3R
KIPTOPEKE VA     1600      48   80/ 15/ 25   N/A
CHES BAY BRIDGE  1600   45 46   50/ 22/ 25 1020.1F
CAPE HENRY VA    1600   46      50/ 20/ 23 1019.5F
CHESAPEAKE LGHT  1500   48      60/ 25/ 28 1022.1R
WILLOUBY STN VA  1600   44      60/ 17/ 20 1021.5R
S CRANEY ISL VA  1600           60/ 13/ 16 1020.9R
CAPE HENRY BUOY  1600      49                N/A     6/ 6
1ST LANDING BUOY 1600   46      50/ 16/ 19 1021.4F
CAPE CHARLES BUO 1600      47                N/A     5/ 6   2/10
64NM E OF VA BCH 1600   58 54   80/ 16/ 21 1019.3F   6/ 6   2/10
DUCK PIER NC     1600   50 46   40/ 26/ 29 1017.9F
44100 DUCK FRF   1600      51                N/A     7/ 6
44056 DUCK FRF   1600      46                N/A     7/ 6
OREGON INLET NC  1600   54 48   70/  4/  7 1017.6S
HATTERAS NC      1600   61 51  110/ 10/ 14 1016.9F
DIAMOND SHLS NC  1600   69                 1016.2F  10/ 7
CAPE LOOKOUT NC  1500   56     280/  2/  3 1016.6F
$$

Return to Home page


Western Regional Climate Center, wrcc@dri.edu